sat.trackr.live / text

‹ back to catalog

STARLINK-34252

NORAD 64330 · 2025-124P

PAYLOAD ACTIVE UNKNOWN

§ Identity

Operator
Country
US
Launch date
2025-06-10
Launch site
AFETR
Launch vehicle
Mass (kg)
RCS (m²)

Purposes: comms

External: N2YO · Heavens-Above · Gunter

§ Orbital elements

Epoch: 2026-09-20T21:39:35.625888Z

Period
94.27 min
Inclination
42.9975°
Eccentricity
0.0001151
Mean motion
15.27588909 rev/d
Perigee alt
482.2 km
Apogee alt
483.8 km
Semi-major
6,861.2 km
B*
4.0510e-4
RAAN
99.4305°
Arg perigee
272.6560°
Mean anomaly
87.4160°
Rev number
7,163

§ Raw data

STARLINK-342521 64330U 25124P   26263.90249567  .00010905  00000+0  40510-3 0  99982 64330  42.9975  99.4305 0001151 272.6560  87.4160 15.27588909 71637

JSON: /api/v1/satellites/64330 · /tle

For live sub-satellite position, see the globe view (requires WebGL).

§ Visibility from observer

Set your observer location to see the next 7 days of passes ≥ 10°. The values pass through the URL so the page stays shareable.

No JS? Fill the form by hand. The geolocation button needs JavaScript.